AEF8302 EDDG-EDDF

Flight info

Callsign AEF8302
Flight time 0h 35m
Altitude 22000
Route DOMEG1E DOMEG N853 ONUNE DCT LIPMI T911 ROLIS ROLIS5D
Aircraft A321/M-SDE3FGHIRWY/LB1

Departure

Time 2026-04-15 09:55
Airport Münster Osnabrück Airport (EDDG)

Arrival

Time 2026-04-15 10:30
Airport Frankfurt Main Airport (EDDF)
Time Latitude Longitude Altitude Speed Heading
2026-04-15 09:21 52.13104 7.69083 168 ft 0 kts 198°
2026-04-15 09:46 52.13116 7.69090 168 ft 4 kts 198°
2026-04-15 09:46 52.13141 7.69103 168 ft 4 kts 187°
2026-04-15 09:46 52.13164 7.69098 168 ft 4 kts 133°
2026-04-15 09:47 52.13172 7.69065 168 ft 3 kts 73°
2026-04-15 09:47 52.13171 7.69059 168 ft 0 kts 71°
2026-04-15 09:51 52.13171 7.69060 168 ft 1 kts 71°
2026-04-15 09:51 52.13179 7.69096 168 ft 6 kts 70°
2026-04-15 09:51 52.13208 7.69232 168 ft 13 kts 71°
2026-04-15 09:51 52.13247 7.69318 168 ft 7 kts 352°
2026-04-15 09:52 52.13327 7.69281 168 ft 17 kts 342°
2026-04-15 09:52 52.13423 7.69230 168 ft 12 kts 358°
2026-04-15 09:52 52.13476 7.69362 168 ft 20 kts 72°
2026-04-15 09:52 52.13520 7.69572 168 ft 19 kts 71°
2026-04-15 09:53 52.13555 7.69738 168 ft 18 kts 71°
2026-04-15 09:53 52.13596 7.69930 168 ft 18 kts 71°
2026-04-15 09:53 52.13651 7.70046 168 ft 14 kts 13°
2026-04-15 09:53 52.13728 7.70020 168 ft 12 kts 343°
2026-04-15 09:54 52.13772 7.69936 168 ft 8 kts 261°
2026-04-15 09:54 52.13770 7.69930 168 ft 0 kts 246°
2026-04-15 09:54 52.13770 7.69929 168 ft 2 kts 246°
2026-04-15 09:54 52.13654 7.69387 170 ft 103 kts 251°
2026-04-15 09:55 52.13350 7.67921 538 ft 148 kts 248°
2026-04-15 09:55 52.13020 7.66345 1657 ft 148 kts 247°
2026-04-15 09:55 52.12667 7.64691 2458 ft 161 kts 248°
2026-04-15 09:55 52.12287 7.62882 3149 ft 178 kts 248°
2026-04-15 09:56 52.11857 7.60900 3788 ft 193 kts 247°
2026-04-15 09:56 52.11389 7.58761 4308 ft 210 kts 249°
2026-04-15 09:56 52.09745 7.54344 5282 ft 253 kts 221°
2026-04-15 09:57 52.08259 7.52766 6404 ft 259 kts 204°
2026-04-15 09:57 52.06506 7.51975 7464 ft 267 kts 188°
2026-04-15 09:57 52.04645 7.51651 8551 ft 271 kts 187°
2026-04-15 09:57 52.02744 7.51330 9581 ft 279 kts 187°
2026-04-15 09:58 52.00788 7.51043 10585 ft 286 kts 182°
2026-04-15 09:58 51.98757 7.51324 11282 ft 305 kts 173°
2026-04-15 09:58 51.96583 7.51885 11714 ft 329 kts 172°
2026-04-15 09:58 51.94265 7.52511 12362 ft 343 kts 172°
2026-04-15 09:59 51.91898 7.53161 13223 ft 349 kts 172°
2026-04-15 09:59 51.89471 7.53823 14122 ft 355 kts 173°
2026-04-15 09:59 51.87051 7.54475 14905 ft 361 kts 173°
2026-04-15 09:59 51.84520 7.55148 15713 ft 366 kts 172°
2026-04-15 10:00 51.81987 7.55818 16503 ft 372 kts 172°
2026-04-15 10:00 51.79416 7.56495 17282 ft 377 kts 172°
2026-04-15 10:00 51.76840 7.57168 18058 ft 382 kts 172°
2026-04-15 10:00 51.74160 7.57862 18773 ft 388 kts 173°
2026-04-15 10:01 51.71455 7.58095 19416 ft 391 kts 184°
2026-04-15 10:01 51.68755 7.57532 20085 ft 393 kts 194°
2026-04-15 10:01 51.66156 7.56315 20648 ft 395 kts 199°
2026-04-15 10:01 51.63526 7.54983 21157 ft 397 kts 199°
2026-04-15 10:02 51.60880 7.53644 21567 ft 400 kts 199°
2026-04-15 10:02 51.58217 7.52299 21816 ft 402 kts 199°
2026-04-15 10:02 51.55549 7.50957 22057 ft 403 kts 199°
2026-04-15 10:02 51.52866 7.49611 22210 ft 406 kts 199°
2026-04-15 10:03 51.50157 7.48256 22237 ft 409 kts 199°
2026-04-15 10:03 51.47429 7.46899 22237 ft 410 kts 199°
2026-04-15 10:03 51.44704 7.45548 22237 ft 410 kts 199°
2026-04-15 10:03 51.41978 7.44196 22236 ft 410 kts 199°
2026-04-15 10:04 51.39252 7.42837 22232 ft 410 kts 199°
2026-04-15 10:04 51.36527 7.41467 22240 ft 410 kts 200°
2026-04-15 10:04 51.33832 7.40002 22230 ft 410 kts 201°
2026-04-15 10:04 51.31155 7.38431 22236 ft 410 kts 202°
2026-04-15 10:05 51.28491 7.36810 22243 ft 410 kts 202°
2026-04-15 10:05 51.25827 7.35175 22242 ft 410 kts 202°
2026-04-15 10:05 51.23160 7.33556 22242 ft 410 kts 202°
2026-04-15 10:05 51.20490 7.31960 22245 ft 410 kts 202°
2026-04-15 10:06 51.17814 7.30392 22247 ft 410 kts 200°
2026-04-15 10:06 51.15023 7.29374 22248 ft 413 kts 188°
2026-04-15 10:06 51.12144 7.29306 22249 ft 415 kts 176°
2026-04-15 10:06 51.09311 7.30195 22243 ft 417 kts 163°
2026-04-15 10:07 51.06642 7.32003 22247 ft 418 kts 151°
2026-04-15 10:07 51.04162 7.34405 22249 ft 418 kts 149°
2026-04-15 10:07 51.01687 7.36833 22249 ft 418 kts 149°
2026-04-15 10:07 50.99209 7.39251 22250 ft 418 kts 149°
2026-04-15 10:08 50.96728 7.41661 22250 ft 418 kts 149°
2026-04-15 10:08 50.94253 7.44061 22250 ft 418 kts 149°
2026-04-15 10:08 50.91765 7.46473 22251 ft 418 kts 149°
2026-04-15 10:08 50.89291 7.48872 22253 ft 418 kts 149°
2026-04-15 10:09 50.86816 7.51262 22253 ft 418 kts 149°
2026-04-15 10:09 50.84345 7.53641 22264 ft 418 kts 149°
2026-04-15 10:09 50.81867 7.56031 22003 ft 416 kts 149°
2026-04-15 10:09 50.79399 7.58410 21746 ft 413 kts 150°
2026-04-15 10:10 50.76914 7.60410 21373 ft 406 kts 158°
2026-04-15 10:10 50.74339 7.62141 20820 ft 398 kts 158°
2026-04-15 10:10 50.71808 7.63824 20270 ft 390 kts 158°
2026-04-15 10:10 50.69334 7.65457 19744 ft 383 kts 159°
2026-04-15 10:11 50.66893 7.67065 19185 ft 377 kts 159°
2026-04-15 10:11 50.64492 7.68655 18622 ft 371 kts 158°
2026-04-15 10:11 50.62123 7.70228 18010 ft 366 kts 158°
2026-04-15 10:11 50.59804 7.71768 17442 ft 359 kts 158°
2026-04-15 10:12 50.57516 7.73285 16887 ft 354 kts 158°
2026-04-15 10:12 50.55290 7.74757 16322 ft 350 kts 159°
2026-04-15 10:12 50.53074 7.76218 15746 ft 347 kts 159°
2026-04-15 10:12 50.50863 7.77672 15197 ft 343 kts 159°
2026-04-15 10:13 50.48667 7.79114 14628 ft 340 kts 159°
2026-04-15 10:13 50.46495 7.80543 14064 ft 337 kts 159°
2026-04-15 10:13 50.44351 7.82001 13464 ft 334 kts 155°
2026-04-15 10:13 50.42378 7.83913 12912 ft 337 kts 144°
2026-04-15 10:14 50.40497 7.86253 12394 ft 350 kts 143°
2026-04-15 10:14 50.38590 7.88626 11843 ft 348 kts 142°
2026-04-15 10:14 50.36702 7.90973 11316 ft 346 kts 142°
2026-04-15 10:14 50.34825 7.93299 10776 ft 340 kts 143°
2026-04-15 10:15 50.33018 7.95532 10619 ft 320 kts 142°
2026-04-15 10:15 50.31318 7.97630 10487 ft 303 kts 143°
2026-04-15 10:15 50.29694 7.99635 10299 ft 291 kts 142°
2026-04-15 10:15 50.28120 8.01603 10272 ft 290 kts 139°
2026-04-15 10:16 50.26785 8.03979 10274 ft 292 kts 124°
2026-04-15 10:16 50.25881 8.06823 10167 ft 293 kts 109°
2026-04-15 10:16 50.25367 8.09889 9944 ft 292 kts 104°
2026-04-15 10:16 50.24883 8.12965 9723 ft 290 kts 104°
2026-04-15 10:17 50.24398 8.16010 9518 ft 289 kts 105°
2026-04-15 10:17 50.23909 8.19044 9312 ft 288 kts 105°
2026-04-15 10:17 50.23419 8.22068 9101 ft 286 kts 105°
2026-04-15 10:17 50.22929 8.25067 8890 ft 285 kts 105°
2026-04-15 10:18 50.22440 8.28061 8681 ft 284 kts 105°
2026-04-15 10:18 50.21956 8.31037 8471 ft 283 kts 105°
2026-04-15 10:18 50.21463 8.34009 8268 ft 281 kts 108°
2026-04-15 10:18 50.20642 8.36752 8070 ft 278 kts 125°
2026-04-15 10:19 50.19360 8.38977 7871 ft 276 kts 141°
2026-04-15 10:19 50.17738 8.40526 7656 ft 273 kts 158°
2026-04-15 10:19 50.15966 8.41561 7468 ft 271 kts 161°
2026-04-15 10:19 50.14168 8.42405 7268 ft 269 kts 174°
2026-04-15 10:20 50.12323 8.42120 7086 ft 269 kts 200°
2026-04-15 10:20 50.10756 8.40573 6876 ft 269 kts 226°
2026-04-15 10:20 50.09790 8.38125 6685 ft 264 kts 248°
2026-04-15 10:20 50.09162 8.35499 6503 ft 253 kts 248°
2026-04-15 10:21 50.08559 8.32982 6324 ft 244 kts 248°
2026-04-15 10:21 50.07975 8.30561 6136 ft 231 kts 248°
2026-04-15 10:21 50.07425 8.28293 5915 ft 218 kts 247°
2026-04-15 10:21 50.06899 8.26126 5657 ft 209 kts 248°
2026-04-15 10:22 50.06388 8.24015 5407 ft 208 kts 248°
2026-04-15 10:22 50.05881 8.21923 5146 ft 206 kts 248°
2026-04-15 10:22 50.05374 8.19835 4900 ft 207 kts 248°
2026-04-15 10:22 50.04794 8.17804 4626 ft 204 kts 231°
2026-04-15 10:23 50.03690 8.16548 4365 ft 197 kts 192°
2026-04-15 10:23 50.02362 8.16598 4121 ft 192 kts 160°
2026-04-15 10:23 50.01113 8.17325 4015 ft 192 kts 154°
2026-04-15 10:23 49.99904 8.18209 4015 ft 192 kts 147°
2026-04-15 10:24 49.98778 8.19326 4013 ft 193 kts 144°
2026-04-15 10:24 49.97666 8.20509 4015 ft 194 kts 142°
2026-04-15 10:24 49.97007 8.21471 4011 ft 192 kts 128°
2026-04-15 10:24 49.96360 8.23264 4011 ft 191 kts 107°
2026-04-15 10:25 49.96166 8.25272 4011 ft 192 kts 88°
2026-04-15 10:25 49.96443 8.27283 3874 ft 191 kts 70°
2026-04-15 10:25 49.96907 8.29179 3650 ft 184 kts 70°
2026-04-15 10:25 49.97356 8.31022 3414 ft 182 kts 70°
2026-04-15 10:26 49.97801 8.32857 3159 ft 180 kts 70°
2026-04-15 10:26 49.98232 8.34638 2922 ft 178 kts 70°
2026-04-15 10:26 49.98663 8.36418 2689 ft 172 kts 70°
2026-04-15 10:26 49.99071 8.38109 2462 ft 164 kts 70°
2026-04-15 10:27 49.99466 8.39745 2242 ft 161 kts 70°
2026-04-15 10:27 49.99854 8.41355 2018 ft 155 kts 70°
2026-04-15 10:27 50.00216 8.42860 1827 ft 141 kts 70°
2026-04-15 10:27 50.00536 8.44187 1639 ft 126 kts 70°
2026-04-15 10:28 50.00837 8.45438 1466 ft 122 kts 70°
2026-04-15 10:28 50.01132 8.46666 1299 ft 121 kts 70°
2026-04-15 10:28 50.01426 8.47890 1128 ft 120 kts 70°
2026-04-15 10:28 50.01720 8.49113 968 ft 121 kts 69°
2026-04-15 10:29 50.02013 8.50332 805 ft 120 kts 69°
2026-04-15 10:29 50.02306 8.51548 630 ft 121 kts 70°
2026-04-15 10:29 50.02598 8.52766 487 ft 120 kts 69°
2026-04-15 10:29 50.02891 8.53985 359 ft 119 kts 70°
2026-04-15 10:30 50.03141 8.55034 349 ft 82 kts 69°
2026-04-15 10:30 50.03272 8.55580 345 ft 33 kts 69°
2026-04-15 10:30 50.03352 8.55910 351 ft 32 kts 70°
2026-04-15 10:30 50.03425 8.56225 358 ft 30 kts 70°
2026-04-15 10:31 50.03500 8.56534 359 ft 31 kts 70°
2026-04-15 10:31 50.03580 8.56851 355 ft 31 kts 63°
2026-04-15 10:31 50.03695 8.57073 362 ft 5 kts 40°
2026-04-15 10:31 50.03728 8.57116 360 ft 10 kts 39°
2026-04-15 10:32 50.03790 8.57198 359 ft 13 kts 40°
2026-04-15 10:32 50.03853 8.57278 367 ft 11 kts 39°
2026-04-15 10:32 50.03920 8.57362 366 ft 13 kts 39°
2026-04-15 10:32 50.03975 8.57492 367 ft 16 kts 68°
2026-04-15 10:33 50.04015 8.57666 368 ft 19 kts 70°
2026-04-15 10:33 50.04067 8.57876 367 ft 23 kts 69°
2026-04-15 10:33 50.04122 8.58105 370 ft 20 kts 70°
2026-04-15 10:33 50.04175 8.58326 370 ft 24 kts 69°
2026-04-15 10:34 50.04212 8.58481 372 ft 10 kts 69°
2026-04-15 10:34 50.04251 8.58599 371 ft 14 kts 40°
2026-04-15 10:34 50.04340 8.58627 369 ft 15 kts
2026-04-15 10:34 50.04450 8.58643 371 ft 16 kts
2026-04-15 10:35 50.04566 8.58691 371 ft 18 kts 38°
2026-04-15 10:35 50.04647 8.58758 371 ft 0 kts
2026-04-15 10:36 50.04649 8.58758 371 ft 2 kts
2026-04-15 10:36 50.04714 8.58767 369 ft 17 kts
2026-04-15 10:36 50.04816 8.58724 366 ft 14 kts 340°
2026-04-15 10:36 50.04915 8.58665 362 ft 15 kts 328°
2026-04-15 10:37 50.04914 8.58521 363 ft 15 kts 250°
2026-04-15 10:37 50.04875 8.58359 362 ft 14 kts 249°
2026-04-15 10:37 50.04862 8.58315 366 ft 3 kts 226°
2026-04-15 10:37 50.04823 8.58321 363 ft 7 kts 161°
2026-04-15 10:38 50.04797 8.58335 367 ft 2 kts 160°
2026-04-15 10:38 50.04783 8.58343 363 ft 0 kts 160°